BEIDOU-3 IGSO-1 (C38)

Last updated on Wed Nov 20 2024 00:03:15 GMT+0000 (Coordinated Universal Time)

1 44204U 19023A 24323.67305698 -.00000235 00000+0 00000+0 0 9996 2 44204 57.8718 43.6133 0024953 211.2842 162.6029 1.00255133 1440
UTC large
Height (km)
Speed (km/s)
/
Latitude / Longitude
Inclination (degrees)
Orbital Period (minutes)
Azimuth
Elevation
Range (km)
Doppler Factor

Next 0 passes for location: London (51.5072 / 0.1276)

Sorry there are no passes over London.